User: anonymous   Login
Location: *
(10.4782°N, 67.2163°W)
Time: 13:00:57
(UTC+00:00)
Language:

IRS-1D - Orbit

View from above orbital plane
View from above orbital plane
View from above satellite
View from above satellite

Ground track
Ground track

The orbit data is extracted from the following two-line orbital elements,

1 24971U 97057A   24200.94667838  .00000682  00000-0  25222-3 0  9992
2 24971  98.7641 169.8828 0053633 123.6389 236.9928 14.34797429402458
Epoch (UTC): 18 July 2024 22:43:13
Eccentricity: 0.0053633
inclination: 98.7641°
perigee height: 737 km
apogee height: 814 km
right ascension of ascending node: 169.8828°
argument of perigee: 123.6389°
revolutions per day: 14.34797429
mean anomaly at epoch: 236.9928°
orbit number at epoch: 40245

The dashed part of the orbit path shows where the satellite is in the earth's shadow,  

DLR